RH
16 16 28 71 76 65 75 73 92 100 100 94 57 30 31 36 25 19 16 19 18 28 50 85 77 63 92 94 91 100 100 99 100 100 100 100 92 98 100 95 77 70 48 62 87 100 100 100 100
10 20 31 44 83 80 66 70 90 97 100 77 87 52 22 46 22 20 18 20 19 30 70 100 100 66 95 100 100 100 100 98 93 100 100 98 100 98 61 67 69 58 62 55 74 55 44 42 42
16 29 40 42 58 50 80 80 84 77 86 72 97 78 34 34 29 21 21 23 22 34 42 81 75 76 71 74 100 100 100 100 95 72 68 79 92 82 61 63 47 61 83 81 51 64 72 46 36
9 24 42 54 54 50 66 82 99 93 95 89 100 89 79 43 44 27 24 29 24 33 62 60 56 53 57 60 66 92 98 99 89 60 71 100 59 74 65 48 56 90 94 88 86 99 93 78 80
5 9 34 56 69 79 70 78 93 75 57 32 79 55 87 100 39 41 25 33 32 39 65 90 83 77 90 91 87 80 55 70 77 98 100 71 73 70 63 66 86 100 100 98 97 42 70 72 46
6 6 12 48 76 71 94 90 92 91 84 42 23 38 67 93 58 42 27 29 35 53 69 82 82 77 86 90 99 85 77 93 70 100 87 48 81 95 63 76 100 97 60 43 49 28 73 100 98
6 6 6 6 21 100 68 96 100 100 96 68 46 16 18 43 82 32 36 27 30 61 70 86 80 87 85 86 96 83 87 78 49 48 51 49 56 65 70 100 93 62 61 56 42 62 84 86 56
6 6 6 6 6 8 29 97 100 100 88 85 100 49 12 14 57 58 38 33 27 56 80 96 90 95 86 100 100 100 86 69 64 52 52 48 45 64 100 100 94 73 59 43 42 96 100 100 92
7 7 7 7 6 6 8 41 89 98 100 99 89 47 21 12 28 67 34 35 28 46 74 79 93 81 88 81 94 100 96 88 95 90 84 89 82 97 100 100 90 50 46 77 70 57 72 96 85
8 6 7 7 7 6 5 6 19 30 46 50 48 76 26 11 15 42 48 36 29 34 67 80 76 62 57 55 73 71 100 100 97 100 90 76 59 77 98 59 53 25 39 51 43 50 35 35 67
9 8 7 8 8 7 7 6 6 6 6 7 17 25 18 9 12 41 65 28 25 29 52 75 68 62 55 55 70 83 87 100 88 78 56 100 78 77 91 69 57 52 43 47 42 39 34 32 50
9 8 8 8 8 8 8 7 6 6 6 6 7 9 9 8 10 14 63 41 30 23 31 64 67 57 54 50 62 67 69 81 75 50 51 62 87 94 100 80 68 43 38 38 34 40 44 44 50
9 8 8 8 9 8 8 8 7 6 7 7 7 9 8 7 8 10 28 64 27 25 22 36 69 65 47 54 57 48 52 46 53 48 42 59 96 100 72 83 42 41 42 49 47 37 45 44 45
9 7 7 8 9 9 8 8 7 7 8 7 7 7 8 7 7 7 12 34 54 25 20 25 40 54 48 54 52 82 56 38 36 51 42 58 88 82 52 50 66 37 30 36 56 45 44 46 48
9 7 7 8 9 10 10 8 7 6 7 7 7 6 7 6 7 8 9 13 24 39 29 23 34 40 46 45 58 70 56 41 31 42 44 81 69 76 46 55 55 56 39 30 48 60 40 48 54
9 8 8 9 10 10 10 9 8 7 6 7 7 6 7 6 6 8 8 15 36 42 49 27 25 43 45 34 51 58 35 33 36 38 56 85 54 63 53 82 73 64 47 43 39 42 40 46 57
9 8 8 9 11 11 10 11 8 8 7 7 7 8 7 6 6 6 7 9 33 50 58 59 26 30 42 40 40 50 29 30 37 68 45 65 48 48 39 77 94 88 69 58 50 47 37 48 59
9 9 9 9 10 11 10 11 10 8 7 7 8 7 8 18 16 10 8 7 9 35 47 40 41 27 24 42 56 44 33 35 36 42 76 66 70 58 50 63 90 100 84 66 53 53 45 64 87
9 10 10 9 10 10 10 10 10 8 8 7 6 8 8 17 90 80 10 9 9 9 15 35 24 40 30 25 48 57 54 42 41 43 41 71 73 91 72 84 94 100 99 73 78 71 56 44 54
10 10 10 10 11 9 9 10 10 9 8 8 7 7 6 7 10 65 65 15 10 12 12 13 16 30 39 30 22 43 54 55 41 43 40 48 63 73 66 88 84 96 77 67 64 64 66 56 58
11 10 10 11 10 10 10 9 9 9 8 8 8 9 8 6 7 52 58 58 28 12 12 13 14 18 43 39 30 26 31 53 41 37 43 41 61 55 54 75 70 70 69 68 52 50 50 64 42
11 9 11 10 10 10 11 9 9 9 8 8 8 8 12 10 7 8 12 28 60 71 74 48 12 14 38 55 37 36 34 29 27 35 40 44 50 44 40 38 42 61 54 32 31 36 38 46 40
11 11 11 12 10 10 11 10 9 8 8 8 8 7 8 12 9 8 8 8 27 64 90 97 83 23 13 57 65 37 36 37 29 24 40 41 37 29 27 28 31 38 46 51 44 49 31 49 48
12 10 12 13 11 10 10 10 8 8 7 8 8 7 6 8 12 10 8 9 18 37 93 99 96 86 14 20 62 68 39 33 39 34 31 33 33 26 25 30 30 29 35 52 52 38 23 25 37
12 11 12 12 11 10 9 9 9 9 8 9 9 8 7 6 9 12 10 11 28 41 89 100 100 89 33 11 40 65 50 22 29 43 48 42 30 26 25 27 34 31 33 33 29 23 21 20 27
12 12 12 12 11 10 8 8 9 8 8 8 8 8 7 6 7 9 10 10 28 53 82 86 91 43 30 67 9 28 40 42 60 66 56 56 56 45 27 20 21 23 23 18 17 17 17 17 21
13 14 14 12 10 9 8 8 8 8 8 8 8 8 7 7 6 6 8 9 21 65 75 78 85 93 100 56 40 17 38 64 83 65 53 44 46 52 47 29 25 24 25 24 26 20 19 19 29
15 16 16 13 10 8 7 7 7 7 7 7 8 9 8 8 8 6 6 8 12 52 62 66 100 100 100 100 68 45 52 61 64 61 50 42 44 38 29 31 25 24 24 24 26 37 29 18 19
17 16 16 12 10 8 7 7 7 7 8 7 8 9 10 8 6 5 5 5 8 20 49 64 85 100 95 91 94 88 62 45 68 67 45 28 44 34 13 12 12 15 22 28 23 35 47 58 72
17 17 15 11 8 8 9 12 8 8 8 10 9 10 11 10 8 7 5 5 5 15 33 57 70 100 100 100 100 75 81 88 59 56 45 30 28 14 10 6 10 16 18 28 27 22 22 54 68
Wind_Speed
28 25 22 18 21 13 12 18 21 15 15 16 16 18 12 12 7 11 15 15 16 18 19 22 23 22 21 19 20 18 18 19 20 24 17 15 13 11 7 8 5 3 4 8 11 14 11 10 10
34 27 23 21 17 16 12 20 19 17 18 13 13 14 14 13 5 11 15 15 17 21 22 24 20 21 20 18 18 18 20 23 22 21 19 18 13 9 13 14 13 12 15 20 20 16 17 15 13
34 31 27 22 21 15 17 18 19 20 20 15 11 14 15 12 7 8 13 15 18 22 25 25 25 24 21 19 22 24 25 25 24 23 22 19 17 15 14 16 17 21 23 23 27 38 42 34 34
42 35 30 23 22 20 18 18 19 20 22 14 10 10 11 12 10 7 11 13 17 20 25 25 23 21 23 25 25 26 27 29 28 25 21 17 16 18 20 21 23 32 33 34 29 44 44 38 38
44 41 31 25 25 22 17 16 17 26 25 18 12 12 8 12 9 5 8 11 15 18 21 21 23 25 26 28 25 27 28 29 28 21 18 22 24 25 26 27 29 28 23 25 32 36 39 39 40
44 43 35 22 20 22 21 19 18 24 24 25 17 12 8 10 10 5 7 10 14 15 18 17 22 23 25 27 26 24 25 25 27 25 24 25 27 28 30 31 35 30 25 24 27 29 35 39 37
44 42 40 32 22 15 18 17 17 21 20 23 24 16 11 7 8 6 6 9 13 15 16 16 20 22 27 26 23 24 23 25 27 28 24 27 26 27 29 32 34 28 25 27 26 26 28 28 29
44 43 41 38 33 25 17 15 16 20 14 14 21 17 10 8 4 6 7 8 12 15 17 16 19 17 19 19 18 22 24 28 33 31 31 29 26 27 29 34 30 24 22 25 20 21 23 22 22
45 43 42 40 36 31 23 16 12 14 14 15 16 13 12 8 3 3 7 11 10 15 17 15 17 19 21 22 22 24 26 30 31 29 30 33 29 28 32 31 25 19 16 15 16 17 18 21 21
47 44 41 39 37 34 29 23 17 12 11 11 11 11 10 10 5 5 6 11 13 14 17 17 18 21 22 22 25 27 27 27 26 26 30 28 24 27 29 27 22 15 16 15 11 18 18 19 19
47 46 43 40 38 37 33 29 23 21 18 16 10 8 9 8 6 5 8 10 17 13 16 17 18 20 22 24 27 25 24 21 20 23 24 22 27 30 25 25 24 19 20 22 23 20 18 16 21
47 45 42 41 36 35 33 29 25 23 21 17 14 12 9 7 6 8 9 9 13 19 16 19 18 20 23 26 25 22 20 17 14 18 22 21 20 18 12 17 18 21 21 22 21 18 17 18 16
45 44 43 41 35 32 31 29 25 22 20 17 13 11 7 6 4 8 9 10 10 16 17 17 19 18 20 20 21 19 16 14 13 18 19 19 17 11 21 18 17 15 19 17 14 21 19 16 15
45 44 42 38 35 32 30 28 24 20 18 16 14 9 7 5 4 5 8 10 12 14 19 17 19 19 21 18 17 17 14 15 16 20 19 17 13 18 15 16 11 10 11 12 14 15 16 17 15
47 46 42 37 34 33 33 27 26 22 16 15 14 12 9 5 4 4 5 6 9 14 17 20 19 21 20 17 17 18 15 19 18 23 19 17 22 16 8 13 10 10 10 9 9 13 9 14 14
47 48 43 38 33 33 32 27 25 23 19 15 14 12 8 5 3 6 4 6 6 12 13 18 19 18 16 17 18 19 20 17 21 25 21 19 20 11 6 7 8 9 9 8 8 8 9 11 11
47 47 44 39 33 33 30 26 25 23 19 14 12 12 9 7 5 6 7 8 7 9 12 13 20 22 19 18 18 20 22 19 21 20 21 18 15 12 9 8 5 4 6 7 4 4 7 6 9
45 42 40 39 34 32 29 26 24 24 21 16 11 8 7 7 6 7 6 2 8 14 11 10 12 22 24 22 20 20 21 20 18 19 22 20 16 10 9 8 6 5 2 4 1 2 5 6 7
43 41 40 37 32 30 28 26 24 22 21 19 15 7 4 2 4 6 2 2 3 8 14 18 15 20 26 28 26 22 22 20 18 17 22 24 20 15 12 8 9 9 8 7 4 3 1 3 3
44 43 40 33 29 27 27 25 22 20 17 16 16 14 8 4 1 3 2 3 4 10 10 12 15 18 24 28 32 30 25 23 22 20 22 25 23 21 17 14 14 13 14 13 11 9 7 8 9
47 45 39 32 28 26 26 25 23 20 19 15 13 12 13 7 3 1 4 4 5 7 13 11 10 15 21 26 29 30 29 29 25 22 24 22 23 25 22 18 16 17 19 18 15 13 13 14 14
48 44 36 32 29 27 23 24 23 22 20 17 13 8 9 12 8 3 6 8 7 10 9 9 10 12 19 21 25 30 31 30 32 31 30 28 27 26 27 25 21 18 17 17 19 17 15 13 13
47 41 36 33 30 26 23 23 25 24 20 18 16 11 7 9 12 10 7 9 11 11 9 7 4 8 16 24 23 25 29 30 28 32 31 32 32 30 28 27 25 24 25 24 21 18 16 15 16
45 40 35 31 29 26 23 23 21 25 21 19 17 15 10 8 12 14 13 12 13 12 11 9 8 5 9 20 26 26 27 29 28 27 29 29 32 32 30 28 26 26 25 25 24 25 24 20 21
43 38 34 31 28 27 24 23 22 22 24 22 20 18 16 13 12 16 19 19 19 17 13 12 11 10 8 11 21 25 25 27 28 27 27 28 27 31 33 31 30 29 29 30 31 30 28 24 24
41 36 34 31 29 28 26 25 23 23 24 22 23 21 20 17 16 20 22 24 23 21 18 15 9 6 5 8 12 18 23 23 21 23 24 26 26 26 28 31 33 33 33 31 29 28 27 27 24
40 37 35 34 31 28 24 24 22 21 22 22 21 21 20 21 20 19 25 29 28 26 20 13 10 7 4 3 2 6 16 22 24 22 24 27 27 26 26 27 28 27 27 26 26 26 27 26 24
39 37 35 34 33 31 25 25 24 22 21 22 23 22 24 22 26 26 27 37 34 30 24 19 15 10 7 9 9 9 11 13 16 21 18 19 23 25 28 28 27 26 27 28 27 25 26 25 23
37 36 36 33 32 30 31 28 26 23 23 23 24 25 25 27 29 29 29 32 36 37 32 24 22 18 19 15 12 12 14 18 17 17 20 15 17 22 24 29 31 30 27 28 30 27 25 25 24
37 36 36 35 33 29 29 31 31 28 23 23 26 27 29 29 30 31 33 33 36 40 37 32 29 24 20 16 25 26 25 19 15 15 17 19 15 16 16 15 19 22 28 30 29 33 32 31 30
Wind_Direction
22 21 20 30 27 40 45 41 26 16 22 15 22 20 34 22 62 43 36 41 35 52 62 88 96 103 106 106 118 122 123 131 143 167 162 160 152 154 177 172 162 102 72 58 55 51 51 40 7
28 25 19 27 31 24 41 34 29 19 1 20 33 23 32 41 51 38 37 41 45 63 82 102 107 105 103 110 123 123 128 128 130 154 173 172 175 153 130 114 110 99 90 81 61 56 54 49 36
36 37 25 27 29 48 39 35 22 28 16 26 46 35 38 53 20 31 45 41 49 69 84 101 109 108 104 111 115 123 127 129 130 125 132 144 141 138 120 121 112 106 90 76 75 81 73 73 70
35 42 45 40 39 38 31 28 23 27 18 29 32 30 38 53 47 3 57 49 48 72 81 87 98 101 109 113 114 121 122 119 123 124 127 127 124 122 126 121 115 102 88 84 84 79 70 73 72
32 38 43 47 32 24 34 38 30 23 27 46 55 40 31 42 64 34 77 70 57 76 86 87 94 102 112 118 119 122 125 126 125 115 122 119 111 115 122 124 109 107 96 95 87 77 71 70 65
29 32 35 45 38 20 14 15 4 11 23 38 52 57 46 46 59 78 96 84 77 88 96 98 97 105 117 122 121 123 124 128 127 135 125 119 115 117 115 110 104 114 102 86 82 86 75 69 63
26 27 28 31 36 25 3 359 356 359 4 31 35 44 49 45 54 89 100 99 92 102 108 110 111 113 121 115 122 128 124 128 129 128 124 123 123 116 110 109 116 106 104 98 93 83 77 66 65
23 23 25 26 27 33 31 16 5 6 12 11 5 19 52 58 87 84 113 114 100 111 111 116 119 123 135 129 129 132 125 126 124 119 113 113 120 110 112 120 119 115 103 93 89 75 61 53 61
20 19 21 21 24 24 27 26 14 12 356 346 359 12 40 68 85 113 128 130 116 115 120 114 132 127 128 127 133 141 131 132 122 118 117 112 105 111 119 117 115 109 103 91 103 74 73 55 65
14 15 17 17 19 19 21 19 13 3 352 350 360 14 23 81 89 146 130 143 141 124 130 117 130 134 131 129 130 132 128 136 124 126 123 117 111 105 116 121 115 103 96 89 94 89 64 55 61
9 10 10 13 12 16 15 19 15 13 12 16 10 20 32 90 114 147 156 152 151 145 140 133 134 142 137 136 139 135 135 135 131 132 136 130 115 113 102 112 113 107 95 87 98 88 73 63 57
5 5 5 7 8 10 12 16 15 17 13 16 26 36 44 80 124 149 159 153 164 159 151 154 150 144 143 140 147 146 146 145 140 150 147 143 137 129 108 124 123 107 98 91 88 78 76 85 61
1 2 3 1 2 6 8 12 15 22 13 5 22 36 23 70 110 137 151 173 167 172 163 161 165 157 157 158 152 160 161 164 151 160 158 156 150 114 110 122 130 118 98 84 69 85 86 76 70
354 355 359 359 360 359 2 8 10 23 21 4 358 25 39 48 75 130 163 175 188 176 176 171 173 171 165 165 166 164 165 166 161 166 163 166 151 131 117 118 121 132 132 89 74 79 80 71 73
348 350 356 355 355 358 356 3 5 14 22 13 360 1 23 43 74 98 155 173 190 188 179 181 179 182 187 184 183 173 166 160 167 162 166 161 147 141 122 109 115 130 148 132 104 76 70 65 75
345 348 350 353 354 355 355 355 0 3 14 13 6 1 7 23 77 118 136 166 180 190 187 192 191 184 189 190 184 182 164 166 167 173 162 170 165 160 163 101 122 125 136 126 100 82 53 69 72
343 345 346 348 351 350 351 351 354 356 5 10 8 1 5 347 13 42 113 165 178 197 198 194 200 202 199 193 186 184 176 163 175 183 179 178 197 209 206 189 164 130 133 137 107 67 51 73 72
339 346 345 342 345 345 346 348 350 348 353 359 351 4 3 3 28 23 15 70 179 202 212 195 202 201 207 206 197 190 188 186 186 187 193 192 193 192 202 201 210 192 185 172 219 353 67 72 57
337 342 341 341 341 340 342 346 346 346 347 344 345 342 11 47 15 32 26 329 240 217 210 227 232 202 205 208 210 205 205 202 201 201 199 202 208 214 210 215 221 233 238 238 246 248 10 20 356
333 339 337 339 332 336 337 341 340 339 340 334 334 333 337 40 275 308 26 188 207 215 219 210 215 214 206 207 208 212 214 212 205 203 203 209 219 213 211 227 241 234 240 242 248 260 291 318 306
329 334 334 333 327 329 328 333 330 327 326 326 327 325 316 333 348 221 273 189 187 191 208 228 230 221 212 209 209 210 215 217 220 217 215 216 218 216 219 238 242 239 245 237 244 255 271 284 296
326 331 330 330 327 324 323 326 321 317 318 323 320 305 301 305 304 243 241 209 197 178 183 200 226 235 218 214 212 212 214 223 225 226 227 223 224 230 234 242 242 240 244 241 240 251 261 265 282
326 328 327 328 328 328 329 324 317 316 315 308 308 311 281 265 279 271 254 220 210 208 213 201 203 231 232 219 219 219 217 217 220 225 229 234 236 238 241 243 244 249 247 250 245 253 272 269 269
320 322 323 324 322 324 327 319 314 310 310 306 304 304 303 259 242 262 253 239 221 224 236 217 231 249 232 225 218 224 222 219 219 224 230 238 232 233 239 245 250 248 247 248 252 264 271 268 271
316 316 319 321 317 318 320 313 312 305 306 305 298 291 291 285 234 231 250 233 220 223 225 230 235 250 252 224 231 227 226 219 219 219 226 233 235 235 235 238 243 249 255 257 261 262 263 261 263
311 313 316 319 317 318 318 311 306 301 300 300 294 292 286 279 269 226 231 238 224 228 228 227 235 265 299 338 236 232 231 229 228 229 227 233 233 237 240 241 243 248 252 256 260 262 265 264 261
308 310 314 316 313 313 310 304 302 299 296 293 287 282 275 274 266 256 221 232 231 230 230 226 209 210 237 321 272 225 230 238 254 249 241 235 233 235 243 243 244 248 250 253 257 259 259 257 259
305 307 308 308 309 309 308 303 299 296 290 286 285 277 271 261 257 252 241 228 230 228 231 224 208 204 190 267 252 230 247 242 251 261 261 247 244 240 242 244 245 248 254 251 252 254 254 257 257
302 304 304 305 306 308 311 307 303 299 295 289 282 278 271 264 258 257 254 241 230 234 236 228 211 210 226 225 229 269 264 261 262 254 256 254 249 250 248 249 248 248 250 249 248 252 257 252 258
297 301 303 304 306 309 310 301 302 301 294 284 279 275 273 271 265 260 254 250 235 230 234 234 222 219 218 224 266 280 263 259 252 253 251 233 234 240 243 248 257 256 251 250 253 252 249 254 258